• In Uzbekistan
  • List of Countries
  • For 7 days
  • Water Temperature
  • Satellite Maps
  • Weather Map
  • Weather Widgets
  • user-avatar
    Login

    Hourly Weather Uige

    Today, 9 December, Friday

    Time Temperature Precipitation Wind Pressure Humidity
    00:00 +17°C° 0.2 mm 0 mps 690 mmHg 93%
    01:00 +17°C° 0 mm 0 mps 691 mmHg 95%
    02:00 +17°C° 0.3 mm 0 mps 690 mmHg 96%
    03:00 +16°C° 0.3 mm 0 mps 690 mmHg 96%
    04:00 +16°C° 0.3 mm 0 mps 690 mmHg 97%
    05:00 +18°C° 0.1 mm 0 mps 691 mmHg 94%
    06:00 +20°C° 0.1 mm 0 mps 692 mmHg 92%
    07:00 +22°C° 0 mm 0 mps 693 mmHg 89%
    08:00 +23°C° 0.7 mm 0 mps 693 mmHg 84%
    09:00 +27°C° 0.7 mm 1 mps 693 mmHg 79%
    10:00 +29°C° 0.7 mm 1 mps 693 mmHg 73%
    11:00 +28°C° 2 mm 1 mps 693 mmHg 75%
    12:00 +28°C° 2 mm 1 mps 692 mmHg 77%
    13:00 +28°C° 2 mm 2 mps 692 mmHg 78%
    14:00 +27°C° 0.6 mm 2 mps 691 mmHg 82%
    15:00 +26°C° 0.6 mm 2 mps 691 mmHg 85%
    16:00 +25°C° 0.6 mm 2 mps 691 mmHg 88%
    17:00 +24°C° 0.2 mm 2 mps 691 mmHg 91%
    18:00 +23°C° 0.2 mm 1 mps 691 mmHg 93%
    19:00 +22°C° 0.2 mm 1 mps 691 mmHg 95%
    20:00 +22°C° 0 mm 1 mps 691 mmHg 94%
    21:00 +21°C° 0 mm 1 mps 691 mmHg 94%
    22:00 +19°C° 0 mm 0 mps 691 mmHg 94%
    23:00 +21°C° 0 mm 1 mps 691 mmHg 94%

    Tomorrow, 10 December, Saturday

    Time Temperature Precipitation Wind Pressure Humidity
    00:00 +21°C° 0 mm 1 mps 691 mmHg 94%
    01:00 +21°C° 0 mm 1 mps 691 mmHg 94%
    02:00 +21°C° 0 mm 1 mps 691 mmHg 95%
    03:00 +21°C° 0 mm 1 mps 691 mmHg 96%
    04:00 +21°C° 0 mm 1 mps 691 mmHg 97%
    05:00 +21°C° 0.1 mm 1 mps 691 mmHg 97%
    06:00 +22°C° 0.1 mm 1 mps 691 mmHg 97%
    07:00 +22°C° 0.1 mm 1 mps 691 mmHg 96%
    08:00 +23°C° 0.1 mm 1 mps 692 mmHg 92%
    09:00 +24°C° 0.1 mm 1 mps 692 mmHg 88%
    10:00 +25°C° 0.1 mm 1 mps 692 mmHg 84%
    11:00 +26°C° 0.2 mm 1 mps 692 mmHg 80%
    12:00 +27°C° 0.2 mm 1 mps 691 mmHg 76%
    13:00 +28°C° 0.2 mm 1 mps 691 mmHg 72%
    14:00 +28°C° 0.5 mm 1 mps 691 mmHg 74%
    15:00 +27°C° 0.5 mm 1 mps 690 mmHg 75%
    16:00 +27°C° 0.5 mm 1 mps 690 mmHg 76%
    17:00 +26°C° 0.1 mm 1 mps 690 mmHg 82%
    18:00 +24°C° 0.1 mm 1 mps 690 mmHg 88%
    19:00 +23°C° 0.1 mm 1 mps 690 mmHg 94%
    20:00 +22°C° 0.1 mm 1 mps 690 mmHg 95%
    21:00 +21°C° 0.1 mm 1 mps 691 mmHg 96%
    22:00 +19°C° 0.1 mm 0 mps 691 mmHg 97%
    23:00 +21°C° 0.1 mm 1 mps 691 mmHg 97%

    Day after tomorrow, 11 December, Sunday

    Time Temperature Precipitation Wind Pressure Humidity
    00:00 +21°C° 0.1 mm 1 mps 691 mmHg 98%
    01:00 +21°C° 0.1 mm 1 mps 690 mmHg 98%
    02:00 +21°C° 0.1 mm 1 mps 690 mmHg 98%
    03:00 +21°C° 0.1 mm 1 mps 690 mmHg 98%
    04:00 +21°C° 0.1 mm 1 mps 690 mmHg 99%
    05:00 +21°C° 0.1 mm 1 mps 690 mmHg 97%
    06:00 +22°C° 0.1 mm 1 mps 691 mmHg 96%
    07:00 +23°C° 0.1 mm 1 mps 691 mmHg 94%
    08:00 +25°C° 0.3 mm 1 mps 692 mmHg 86%
    09:00 +25°C° 0.3 mm 0 mps 692 mmHg 78%
    10:00 +28°C° 0.3 mm 0 mps 693 mmHg 69%
    11:00 +30°C° 1.1 mm 1 mps 692 mmHg 67%
    12:00 +30°C° 1.1 mm 1 mps 691 mmHg 64%
    13:00 +31°C° 1.1 mm 1 mps 691 mmHg 61%
    14:00 +30°C° 0.5 mm 1 mps 690 mmHg 65%
    15:00 +29°C° 0.5 mm 1 mps 690 mmHg 70%
    16:00 +29°C° 0.5 mm 1 mps 689 mmHg 74%
    17:00 +27°C° 0.7 mm 1 mps 689 mmHg 80%
    18:00 +25°C° 0.7 mm 1 mps 689 mmHg 86%
    19:00 +23°C° 0.7 mm 1 mps 690 mmHg 92%
    20:00 +22°C° 0.3 mm 1 mps 690 mmHg 93%
    21:00 +22°C° 0.3 mm 1 mps 690 mmHg 94%
    22:00 +21°C° 0.3 mm 1 mps 691 mmHg 96%
    23:00 +21°C° 0 mm 1 mps 691 mmHg 96%

    12 December, Monday

    Time Temperature Precipitation Wind Pressure Humidity
    00:00 +21°C° 0 mm 1 mps 690 mmHg 96%
    01:00 +21°C° 0 mm 1 mps 690 mmHg 97%
    02:00 +21°C° 0 mm 1 mps 690 mmHg 97%
    03:00 +21°C° 0 mm 1 mps 690 mmHg 97%
    04:00 +21°C° 0 mm 1 mps 690 mmHg 98%
    05:00 +21°C° 0 mm 1 mps 690 mmHg 97%
    06:00 +22°C° 0 mm 1 mps 691 mmHg 96%
    07:00 +22°C° 0 mm 1 mps 691 mmHg 94%
    08:00 +25°C° 0.2 mm 1 mps 692 mmHg 84%
    09:00 +28°C° 0.2 mm 1 mps 692 mmHg 73%
    10:00 +30°C° 0.2 mm 1 mps 693 mmHg 63%
    11:00 +30°C° 0.3 mm 1 mps 692 mmHg 60%
    12:00 +31°C° 0.3 mm 1 mps 691 mmHg 57%
    13:00 +31°C° 0.3 mm 1 mps 691 mmHg 54%
    14:00 +30°C° 0.4 mm 1 mps 690 mmHg 60%
    15:00 +30°C° 0.4 mm 1 mps 689 mmHg 65%
    16:00 +29°C° 0.4 mm 2 mps 689 mmHg 70%
    17:00 +27°C° 0.3 mm 1 mps 689 mmHg 78%
    18:00 +25°C° 0.3 mm 1 mps 689 mmHg 85%
    19:00 +23°C° 0.3 mm 1 mps 690 mmHg 93%
    20:00 +22°C° 0.2 mm 1 mps 690 mmHg 94%
    21:00 +22°C° 0.2 mm 1 mps 690 mmHg 95%
    22:00 +21°C° 0.2 mm 1 mps 691 mmHg 96%
    23:00 +21°C° 0.1 mm 1 mps 691 mmHg 97%

    13 December, Tuesday

    Time Temperature Precipitation Wind Pressure Humidity
    00:00 +21°C° 0.1 mm 1 mps 690 mmHg 97%
    01:00 +21°C° 0.1 mm 1 mps 690 mmHg 97%
    02:00 +21°C° 0 mm 1 mps 690 mmHg 98%
    03:00 +21°C° 0 mm 1 mps 690 mmHg 98%
    04:00 +20°C° 0 mm 1 mps 689 mmHg 98%
    05:00 +21°C° 0 mm 1 mps 690 mmHg 97%
    06:00 +21°C° 0 mm 1 mps 691 mmHg 96%
    07:00 +22°C° 0 mm 1 mps 691 mmHg 95%
    08:00 +24°C° 0.1 mm 1 mps 692 mmHg 89%
    09:00 +25°C° 0.1 mm 1 mps 692 mmHg 82%
    10:00 +27°C° 0.1 mm 1 mps 692 mmHg 76%
    11:00 +28°C° 0.1 mm 1 mps 692 mmHg 71%
    12:00 +29°C° 0.1 mm 1 mps 691 mmHg 66%
    13:00 +30°C° 0.1 mm 1 mps 691 mmHg 60%
    14:00 +29°C° 0.1 mm 1 mps 690 mmHg 62%
    15:00 +29°C° 0.1 mm 1 mps 690 mmHg 64%
    16:00 +28°C° 0.1 mm 1 mps 689 mmHg 66%
    17:00 +26°C° 0.4 mm 1 mps 690 mmHg 74%
    18:00 +25°C° 0.4 mm 1 mps 690 mmHg 82%
    19:00 +23°C° 0.4 mm 1 mps 690 mmHg 90%
    20:00 +22°C° 0.1 mm 1 mps 690 mmHg 92%
    21:00 +22°C° 0.1 mm 1 mps 691 mmHg 94%
    22:00 +21°C° 0.1 mm 1 mps 691 mmHg 95%
    23:00 +21°C° 0.1 mm 1 mps 691 mmHg 96%

    14 December, Wednesday

    Time Temperature Precipitation Wind Pressure Humidity
    00:00 +21°C° 0.1 mm 1 mps 691 mmHg 96%
    01:00 +21°C° 0.1 mm 1 mps 691 mmHg 96%
    02:00 +21°C° 0.3 mm 1 mps 691 mmHg 97%
    03:00 +21°C° 0.3 mm 1 mps 691 mmHg 98%
    04:00 +21°C° 0.3 mm 1 mps 691 mmHg 98%
    05:00 +21°C° 0.1 mm 1 mps 691 mmHg 98%
    06:00 +22°C° 0.1 mm 1 mps 692 mmHg 97%
    07:00 +22°C° 0.1 mm 1 mps 692 mmHg 97%
    08:00 +24°C° 0.1 mm 1 mps 692 mmHg 90%
    09:00 +25°C° 0.1 mm 1 mps 693 mmHg 83%
    10:00 +27°C° 0.1 mm 1 mps 693 mmHg 75%
    11:00 +26°C° 0.4 mm 1 mps 692 mmHg 78%
    12:00 +26°C° 0.4 mm 1 mps 692 mmHg 81%
    13:00 +26°C° 0.4 mm 1 mps 691 mmHg 84%
    14:00 +25°C° 0.5 mm 1 mps 691 mmHg 87%
    15:00 +24°C° 0.5 mm 1 mps 690 mmHg 91%
    16:00 +24°C° 0.5 mm 1 mps 690 mmHg 94%
    17:00 +23°C° 0.1 mm 1 mps 690 mmHg 95%
    18:00 +22°C° 0.1 mm 1 mps 690 mmHg 96%
    19:00 +21°C° 0.1 mm 1 mps 691 mmHg 97%
    20:00 +21°C° 0 mm 1 mps 691 mmHg 97%
    21:00 +21°C° 0 mm 1 mps 691 mmHg 96%
    22:00 +21°C° 0 mm 1 mps 692 mmHg 96%
    23:00 +21°C° 0 mm 1 mps 691 mmHg 97%
    Show more